Volver al catálogo

SL-12 R/B

AUX MOTOR

ActivoHEO
NORAD 19170·ROCKET BODY·🇷🇺 Russia

Lanzado May 21, 1988 desde Baikonur Cosmodrome

Loading…

Próximos Pases (próximas 24 horas)

TLE

ActualizadoSource: Space-Track

Época: Sep 14, 2026, 12:29 UTC

1 19170U 88043H   26257.52079107  .00000186  00000-0  42291-3 0  9990
2 19170  64.8927 259.0990 5727968  18.8626 355.7587  4.25134635593858

Sigue SL-12 R/B en tiempo real con AllMySat

Download on the App Store